Regional Weather Roundup
Issued by NWS Little Rock, AR

Home | Current Version | Previous Version | Graphics & Text | Print | Product List | Glossary On
Versions: 1 2 3 4 5 6 7 8 9 10 11 12 13 14 15 16 17 18 19 20 21 22 23 24 25 26 27 28 29 30 31 32 33 34 35 36 37 38 39 40 41 42 43 44 45 46 47 48 49 50
000
ASUS44 KLZK 161812
RWRLZK

WEATHER ROUNDUP FOR ARKANSAS
NATIONAL WEATHER SERVICE LITTLE ROCK AR
1200 PM CST TUE JAN 16 2018

NOTE: "FAIR" INDICATES FEW OR NO CLOUDS BELOW 12,000 FEET WITH NO
SIGNIFICANT WEATHER AND/OR OBSTRUCTIONS TO VISIBILITY.

ARZ001-003-010-029-161900-
NORTHWEST ARKANSAS

CITY           SKY/WX    TMP DP  RH WIND       PRES   REMARKS
FAYETTEVILLE   SUNNY      9  -5  53 NW12      30.73F WCI  -6
6HR MIN TEMP:   1; 6HR MAX TEMP:  10;

FORT SMITH     SUNNY     17  -4  39 NW14G21   30.80F WCI   3
6HR MIN TEMP:  11; 6HR MAX TEMP:  17;

HARRISON       SUNNY      5  -4  66 NW12G21   30.68F WCI -11
6HR MIN TEMP:   0; 6HR MAX TEMP:   5; 6HR PCP: TRACE;

BENTONVILLE    SUNNY      9  -3  58 NW9       30.74  WCI  -4
6HR MIN TEMP:  -2; 6HR MAX TEMP:   9;

ROGERS         SUNNY      9  -2  61 W12       30.72F WCI  -6
6HR MIN TEMP:  -2; 6HR MAX TEMP:   9;

SILOAM SPGS    PTSUNNY    8  -4  58 NW14      30.75F WCI  -8
6HR MIN TEMP:   1; 6HR MAX TEMP:   8;

HIGHFILL       MOSUNNY    8  -4  58 NW12      30.73F WCI  -7
6HR MIN TEMP:   0; 6HR MAX TEMP:   9;

SPRINGDALE     MOSUNNY    9  -6  52 NW10G18   30.73F WCI  -6
$$

ARZ004-005-016-161900-
NORTH CENTRAL ARKANSAS

CITY           SKY/WX    TMP DP  RH WIND       PRES   REMARKS
BATESVILLE     SUNNY     14  -2  49 NW10G17   30.72F WCI   1
6HR MIN TEMP:   6; 6HR MAX TEMP:  14;

FLIPPIN        SUNNY     12  -3  51 NW13G18   30.74F WCI  -3
6HR MIN TEMP:   2; 6HR MAX TEMP:  12;

MTN HOME       SUNNY      7  -5  57 N8G18     30.70F WCI  -6
6HR MIN TEMP:   0; 6HR MAX TEMP:   7;

$$

ARZ040-041-161900-
WEST CENTRAL ARKANSAS

CITY           SKY/WX    TMP DP  RH WIND       PRES   REMARKS
MENA           MOSUNNY   21   5  49 N9        30.70F WCI  11
MOUNT IDA      SUNNY     19   2  47 N8G16     30.69F WCI   9
6HR MIN TEMP:  11; 6HR MAX TEMP:  19; 6HR PCP: TRACE;

$$

ARZ009-017-025-026-028-161900-
NORTHEAST ARKANSAS

CITY           SKY/WX    TMP DP  RH WIND       PRES   REMARKS
JONESBORO      FAIR      14   2  58 N10G16    30.71F WCI   1
6HR MIN TEMP:   9; 6HR MAX TEMP:  14;

NEWPORT        FAIR      15   1  53 N14G21    30.73F WCI   0
6HR MIN TEMP:   7; 6HR MAX TEMP:  15;

WALNUT RIDGE   FAIR      15  -1  49 NW9       30.72F WCI   3
6HR MIN TEMP:   7; 6HR MAX TEMP:  15;

BLYTHEVILLE    FLURRIES  14   3  61 N13       30.71F WCI   0
6HR MIN TEMP:   5; 6HR MAX TEMP:  14; 6HR PCP:  0.04;

$$

ARZ022-023-033-042-044-161900-
CENTRAL ARKANSAS

CITY           SKY/WX    TMP DP  RH WIND       PRES   REMARKS
LITTLE ROCK    MOSUNNY   19   7  59 NW14G20   30.74F WCI   6
6HR MIN TEMP:  10; 6HR MAX TEMP:  20;

JACKSONVILLE   SUNNY     17   2  50 NW10      30.71F WCI   5
6HR MIN TEMP:  10; 6HR MAX TEMP:  17;

SEARCY         FAIR      18   3  52 NW9         N/A  WCI   7
6HR MIN TEMP:   9; 6HR MAX TEMP:  18;

HOT SPRINGS    SUNNY     20   3  48 VRB7      30.72F WCI  11
6HR MIN TEMP:  15; 6HR MAX TEMP:  21;

RUSSELLVILLE   SUNNY     16  -3  43 NW9       30.75F WCI   4
6HR MIN TEMP:  11; 6HR MAX TEMP:  17;

CLINTON        FAIR      16  -4  41 W12G18    30.73F WCI   3
$$

ARZ036-161900-
EAST ARKANSAS

CITY           SKY/WX    TMP DP  RH WIND       PRES   REMARKS
WEST MEMPHIS   FAIR      12   2  64 N9        30.71F WCI   0
6HR MIN TEMP:  11; 6HR MAX TEMP:  15; 6HR PCP: TRACE;

$$

ARZ050-053-066-070-073-161900-
SOUTHWEST ARKANSAS

CITY           SKY/WX    TMP DP  RH WIND       PRES   REMARKS
ARKADELPHIA    FAIR      24  10  55 N12       30.75F WCI  13
6HR MIN TEMP:  17; 6HR MAX TEMP:  24;

CAMDEN         DRIZZLE   27   7  43 N7G15     30.73F WCI  19
TEXARKANA      SUNNY     20   5  52 NW12      30.73F WCI   8
6HR MIN TEMP:  18; 6HR MAX TEMP:  21;

EL DORADO      CLOUDY    23  15  71 NW10      30.71F WCI  12
6HR MIN TEMP:  20; 6HR MAX TEMP:  24; 6HR PCP: TRACE;

DE QUEEN       SUNNY     22   4  46 NE7       30.75F WCI  13
6HR MIN TEMP:  15; 6HR MAX TEMP:  22;

$$

ARZ056-057-069-161900-
SOUTHEAST ARKANSAS

CITY           SKY/WX    TMP DP  RH WIND       PRES   REMARKS
PINE BLUFF     FAIR      14   3  61 N13       30.74F WCI   0
6HR MIN TEMP:  13; 6HR MAX TEMP:  18; 6HR PCP: TRACE;

STUTTGART      FAIR      14   2  58 N13       30.74F WCI   0
6HR MIN TEMP:  11; 6HR MAX TEMP:  17; 6HR PCP: TRACE;

MONTICELLO     FAIR      20   2  45 NE12G18   30.71F WCI   8
6HR MIN TEMP:  18; 6HR MAX TEMP:  21; 6HR PCP: TRACE;


$$





USA.gov is the U.S. government's official web portal to all federal, state and local government web resources and services.